Location: Rotheul
(50.2849°N, 11.2349°E)
Time: 05:17:52
(UTC+02:00)

ISS - Pass Details

Date: 24 September 2018
Orbit: 403 x 409 km, 51.6° (Epoch: 24 September)

Event Time Altitude Azimuth Distance (km) Brightness Sun altitude
Rises 20:16:43 0° 219° (SW) 2,324 0.4 -11.5°
Reaches altitude 10° 20:18:58 10° 207° (SSW) 1,466 -0.8 -11.9°
Maximum altitude 20:21:50 28° 147° (SSE) 800 -2.7 -12.3°
Enters shadow 20:22:57 23° 112° (ESE) 934 -2.6 -12.5°
